Regional Weather Roundup
Issued by NWS

Home | Current Version | Previous Version | Text Only | Print | Product List | Glossary On
Versions: 1 2 3 4 5 6 7 8 9 10 11 12 13 14 15 16 17 18 19 20 21 22 23 24 25 26 27 28 29 30 31 32 33 34 35 36 37 38 39 40 41 42 43 44 45 46 47 48 49 50
000
ASUS43 KMPX 200810
RWRMN
WEATHER ROUNDUP FOR MINNESOTA
NATIONAL WEATHER SERVICE TWIN CITIES/CHANHASSEN MN
300 AM CDT THU JUL 20 2017


NOTE: "FAIR" INDICATES FEW OR NO CLOUDS BELOW 12,000 FEET WITH NO
SIGNIFICANT WEATHER AND/OR OBSTRUCTIONS TO VISIBILITY. N/A MEANS
CURRENT SKY AND/OR WEATHER CONDITIONS ARE NOT AVAILABLE.

MNZ060>063-068>070-200900-
   Twin Cities Metro

CITY           SKY/WX    TMP DP  RH WIND       PRES   REMARKS
TWIN CITIES    CLOUDY    70  67  90 N7        29.93R
ST PAUL        CLOUDY    69  69 100 N3        29.93R
CRYSTAL        PTCLDY    67  64  90 CALM      29.92R FOG
BLAINE           N/A     68  68 100 CALM      29.94S FOG
LAKEVILLE      CLOUDY    66  66 100 CALM      29.94S FOG
EDEN PRAIRIE   CLOUDY    69  67  93 CALM      29.92S FOG
SOUTH ST PAUL  CLOUDY    69  69  99 CALM      29.93R
LAKE ELMO      FAIR      68  68 100 VRB3      29.94S FOG
$$
MNZ001>005-007-008-013>017-022>024-027-028-200900-
   Northwest Minnesota

CITY           SKY/WX    TMP DP  RH WIND       PRES   REMARKS
BEMIDJI        CLEAR     65  64  96 W8        29.93F
HALLOCK        CLEAR     61  59  94 NW5       29.93S
ROSEAU         CLEAR     64  59  82 W6        29.92S
WARROAD        CLEAR     63  61  94 W6        29.92R
THIEF RVR FALL PTCLDY    62  61  96 W7        29.95S
CROOKSTON      FOG       59  57  94 W3        29.95S VSB 1/2
FOSSTON        FOG       57  55  94 CALM      29.96S VSB<1/4
DETROIT LAKES  CLEAR     66  63  88 CALM      29.97R
MOORHEAD       CLEAR     63  63 100 CALM      29.95S FOG
PARK RAPIDS    CLEAR     64  62  93 NW3       29.94S
MAHNOMEN         N/A     63  62  98 CALM      29.96S FOG
$$
MNZ006-009>011-018-025>026-200900-
   North Central Minnesota

CITY           SKY/WX    TMP DP  RH WIND       PRES   REMARKS
BAUDETTE       CLEAR     62  62 100 W6        29.90S
FLAG ISLAND    CLEAR     66  63  88 W9        29.89S
INTL FALLS     PTCLDY    60  58  92 CALM      29.89S FOG
WASKISH        CLEAR     68  64  88 W6        29.92R
BIG FORK       CLEAR     61  57  88 SW3       29.91S FOG
LONGVILLE      CLEAR     59  57  94 CALM      29.93S
GRAND RAPIDS   CLEAR     59  59 100 CALM      29.94S
CRANE LAKE     PTCLDY    57  55  94 CALM      29.91S
ORR            PTCLDY    61  55  82 CALM      29.88F
COOK           CLEAR     59  57  94 CALM      29.91S
WALKER         FAIR      66  63  91 W7        29.93S
$$
MNZ012-019>021-037-200900-
   Northeast Minnesota

CITY           SKY/WX    TMP DP  RH WIND       PRES   REMARKS
DULUTH         CLEAR     58  57  97 W6        29.93S
ELY            PTCLDY    59  57  94 CALM      29.91S
HIBBING        FOG       52  52 100 CALM      29.92S VSB 3/4
EVELETH        CLEAR     55  52  90 CALM      29.93S
DULUTH HARBOR  CLEAR     61  57  88 CALM      29.92S THUNDER
TWO HARBORS    CLEAR     61  55  82 CALM      29.90S
SILVER BAY     CLEAR     55  54  94 CALM      29.90S
GRAND MARAIS     N/A     56  54  93 CALM      29.87F
G MARAIS ARPRT CLEAR     52  48  87 W3        29.93S
$$
MNZ029>031-032-039>041-046>048-054>057-064-200900-
   West Central Minnesota

CITY           SKY/WX    TMP DP  RH WIND       PRES   REMARKS
FERGUS FALLS   CLEAR     66  66 100 CALM      29.94S
WHEATON        CLEAR     64  63  94 CALM      29.96S FOG
MORRIS         CLEAR     64  63  94 CALM      29.94S FOG
ALEXANDRIA     CLEAR     63  62  97 S3        29.97S
ELBOW LAKE     FAIR      65  65 100 CALM      29.96S
WADENA         CLOUDY    61  61 100 CALM      29.95R VSB 1/4
GLENWOOD       CLEAR     64  63  94 CALM      29.97S
APPLETON       CLEAR     66  63  88 S3        29.95R FOG
BENSON         FOG       63  63 100 CALM      29.96S VSB 1/2
ORTONVILLE     PTCLDY    66  64  94 CALM      29.95R FOG
MADISON        CLEAR     70  70 100 SW3       29.97R
WILLMAR        FAIR      66  66 100 CALM      29.97R FOG
$$
MNZ033>034-036-042>043-049>051-058-059-200900-
   Central Minnesota

CITY           SKY/WX    TMP DP  RH WIND       PRES   REMARKS
ST CLOUD       PTCLDY    62  62 100 S3        29.96R FOG
SAUK CENTRE    FAIR      59  59  99 S3        29.97R FOG
PAYNESVILLE    PTCLDY    65  64  99 CALM      29.97R
AITKIN         FOG       55  54  94 CALM      29.93R VSB 1/2
PINE RIVER     CLEAR     59  59 100 CALM      29.97S FOG
BRAINERD       CLEAR     58  57  97 CALM      29.95R
STAPLES        CLEAR     61  59  94 S5        29.95R
LONG PRAIRIE   FAIR      59  59 100 SE3       29.97R FOG
LITTLE FALLS   CLEAR     59  55  88 CALM      29.95S FOG
LITCHFIELD     CLEAR     68  68 100 N3        29.95S FOG
BUFFALO        CLEAR     67  65  93 N5        29.95F FOG
MAPLE LAKE     PTCLDY    66  66  98 N5        29.95S FOG
HUTCHINSON     CLEAR     67  67  99 CALM      29.97R FOG
$$
MNZ037-044-045-052-053-200900-
   East Central Minnesota

CITY           SKY/WX    TMP DP  RH WIND       PRES   REMARKS
PRINCETON      MOCLDY    64  63  94 CALM      29.96R
MORA           CLEAR     59  57  94 CALM      29.97R
CAMBRIDGE      CLOUDY    66  61  82 CALM      29.94R
RUSH CITY      PTCLDY    63  61  95 CALM      29.95R
MOOSE LAKE     FOG       55  54  94 CALM      29.92S VSB 1
HINCKLEY       FAIR      61  61 100 S3        29.95R FOG
CLOQUET        CLEAR     57  55  94 CALM      29.93S
MCGREGOR       CLEAR     55  55 100 CALM      29.94S
$$
MNZ071>073-080-081-089-090-097-098-200900-
   Southwest Minnesota

CITY           SKY/WX    TMP DP  RH WIND       PRES   REMARKS
MONTEVIDEO     CLEAR     66  64  94 CALM      29.97R
GRANITE FALLS  MOCLDY    69  67  95 CALM      29.98R
CANBY          MOCLDY    69  67  95 CALM      29.98S FOG
MARSHALL       CLOUDY    70  68  93 CALM      29.98R
REDWOOD FALLS  CLOUDY    69  67  93 S3        29.95R
OLIVIA         CLOUDY    68  64  88 CALM      29.96R
PIPESTONE      CLOUDY    72  68  88 E7        29.97S
WINDOM         CLOUDY    68  66  94 N3        29.96S
WORTHINGTON    CLOUDY    68  66  93 NE7       29.98R
JACKSON        CLOUDY    68  66  94 CALM      29.97S
TRACY          CLOUDY    69  69 100 CALM      29.98R FOG
SLAYTON        HVY RAIN  68  66  94 N3        29.99R
$$
MNZ065>067-074>077-082>085-091>093-200900-
   South Central Minnesota

CITY           SKY/WX    TMP DP  RH WIND       PRES   REMARKS
MANKATO        CLOUDY    70  67  90 E7        29.93F
NEW ULM        CLOUDY    68  66  94 NE3       29.94F
ST JAMES       CLOUDY    68  66  94 NW3       29.94F
FAIRMONT       CLOUDY    69  68  96 NW3       29.94R
GLENCOE        CLOUDY    69  69 100 CALM      29.95R
FARIBAULT      CLOUDY    70  68  94 SE5       29.96S
OWATONNA       TSTM      70  68  94 N10       29.93F
WASECA         CLOUDY    70  68  94 NE7       29.94F
ALBERT LEA     CLOUDY    73  72  94 N9        29.91F
$$
MNZ078>079-086>088-094>096-200900-
   Southeast Minnesota

CITY           SKY/WX    TMP DP  RH WIND       PRES   REMARKS
ROCHESTER      CLOUDY    70  68  93 CALM      29.97R
RED WING       CLOUDY    72  70  94 CALM      29.91F
STANTON        CLOUDY    70  68  93 CALM      29.93F FOG
DODGE CENTER   RAIN      70  66  88 NW3       29.98R
WINONA         TSTM      70  68  94 S5        29.97R
AUSTIN         CLOUDY    73  70  88 S5        29.92F
PRESTON        CLOUDY    68  65  91 S8        29.94F THUNDER
$$
ABBREVIATIONS USED IN REMARKS
   TC - TEMPERATURES IN CELSIUS
  WCI - WIND CHILL INDEX
   HX - HEAT INDEX
  VSB - VISIBILITY
$$



USA.gov is the U.S. government's official web portal to all federal, state and local government web resources and services.